Time,TemperatureF,DewpointF,PressureIn,WindDirection,WindDirectionDegrees,WindSpeedMPH,WindSpeedGustMPH,Humidity,HourlyPrecipIn,Conditions,Clouds,dailyrainin,SoftwareType,DateUTC
2013-02-24 00:09:00,27.4,25.0,29.88,East,86,0.0,-999.0,92,-99.99,,,0.00,weatherlink.com 1.10,2013-02-24 05:09:00,
2013-02-24 00:24:00,27.3,25.0,29.88,East,84,0.0,-999.0,92,-99.99,,,0.00,weatherlink.com 1.10,2013-02-24 05:24:00,
2013-02-24 00:39:00,27.3,25.0,29.89,NE,38,0.0,-999.0,92,-99.99,,,0.00,weatherlink.com 1.10,2013-02-24 05:39:00,
2013-02-24 00:54:00,27.2,25.0,29.89,NE,38,0.0,-999.0,92,-99.99,,,0.00,weatherlink.com 1.10,2013-02-24 05:54:00,
2013-02-24 01:09:00,27.1,25.0,29.89,NE,38,0.0,-999.0,92,-99.99,,,0.00,weatherlink.com 1.10,2013-02-24 06:09:00,
2013-02-24 01:24:00,27.0,25.0,29.90,NE,38,0.0,-999.0,92,-99.99,,,0.00,weatherlink.com 1.10,2013-02-24 06:24:00,
2013-02-24 01:39:00,27.0,25.0,29.90,NE,38,0.0,-999.0,92,-99.99,,,0.00,weatherlink.com 1.10,2013-02-24 06:39:00,
2013-02-24 01:54:00,26.9,25.0,29.91,NE,38,0.0,-999.0,92,-99.99,,,0.00,weatherlink.com 1.10,2013-02-24 06:54:00,
2013-02-24 02:09:00,26.8,25.0,29.91,NE,38,0.0,-999.0,92,-99.99,,,0.00,weatherlink.com 1.10,2013-02-24 07:09:00,
2013-02-24 02:24:00,26.9,25.0,29.91,NE,38,0.0,-999.0,91,-99.99,,,0.00,weatherlink.com 1.10,2013-02-24 07:24:00,
2013-02-24 02:39:00,26.9,25.0,29.91,SSW,213,0.0,-999.0,91,-99.99,,,0.00,weatherlink.com 1.10,2013-02-24 07:39:00,
2013-02-24 02:54:00,26.9,25.0,29.91,SW,221,0.0,-999.0,91,-99.99,,,0.00,weatherlink.com 1.10,2013-02-24 07:54:00,
2013-02-24 03:09:00,26.8,25.0,29.92,South,184,0.0,-999.0,91,-99.99,,,0.00,weatherlink.com 1.10,2013-02-24 08:09:00,
2013-02-24 03:24:00,26.8,25.0,29.92,South,188,0.0,-999.0,91,-99.99,,,0.00,weatherlink.com 1.10,2013-02-24 08:24:00,
2013-02-24 03:39:00,26.8,25.0,29.92,West,263,0.0,-999.0,91,-99.99,,,0.00,weatherlink.com 1.10,2013-02-24 08:39:00,
2013-02-24 03:54:00,26.8,25.0,29.92,NNW,331,0.0,-999.0,91,-99.99,,,0.00,weatherlink.com 1.10,2013-02-24 08:54:00,
2013-02-24 04:09:00,26.7,24.0,29.93,SW,236,0.0,-999.0,90,-99.99,,,0.00,weatherlink.com 1.10,2013-02-24 09:09:00,
2013-02-24 04:24:00,26.6,24.0,29.93,West,276,0.0,-999.0,91,-99.99,,,0.00,weatherlink.com 1.10,2013-02-24 09:24:00,
2013-02-24 04:39:00,26.7,25.0,29.93,SSW,204,0.0,-999.0,91,-99.99,,,0.00,weatherlink.com 1.10,2013-02-24 09:39:00,
2013-02-24 04:54:00,26.8,25.0,29.94,SSW,200,0.0,-999.0,91,-99.99,,,0.00,weatherlink.com 1.10,2013-02-24 09:54:00,
2013-02-24 05:09:00,26.8,25.0,29.94,West,272,0.0,-999.0,91,-99.99,,,0.00,weatherlink.com 1.10,2013-02-24 10:09:00,
2013-02-24 05:24:00,27.0,25.0,29.95,South,184,0.0,-999.0,91,-99.99,,,0.00,weatherlink.com 1.10,2013-02-24 10:24:00,
2013-02-24 05:39:00,27.0,25.0,29.96,WSW,242,0.0,-999.0,91,-99.99,,,0.00,weatherlink.com 1.10,2013-02-24 10:39:00,
2013-02-24 05:54:00,26.9,25.0,29.97,NW,319,1.0,-999.0,91,-99.99,,,0.00,weatherlink.com 1.10,2013-02-24 10:54:00,
2013-02-24 06:09:00,26.9,25.0,29.98,SW,229,0.0,-999.0,91,-99.99,,,0.00,weatherlink.com 1.10,2013-02-24 11:09:00,
2013-02-24 06:24:00,26.9,25.0,29.99,SW,218,0.0,-999.0,91,-99.99,,,0.00,weatherlink.com 1.10,2013-02-24 11:24:00,
2013-02-24 06:39:00,26.7,25.0,29.99,WSW,258,0.0,-999.0,91,-99.99,,,0.00,weatherlink.com 1.10,2013-02-24 11:39:00,
2013-02-24 06:54:00,26.7,25.0,30.00,East,96,0.0,-999.0,91,-99.99,,,0.00,weatherlink.com 1.10,2013-02-24 11:54:00,
2013-02-24 07:09:00,26.7,25.0,30.00,SSW,194,1.0,-999.0,91,-99.99,,,0.00,weatherlink.com 1.10,2013-02-24 12:09:00,
2013-02-24 07:24:00,26.7,25.0,30.01,SW,220,0.0,-999.0,91,-99.99,,,0.00,weatherlink.com 1.10,2013-02-24 12:24:00,
2013-02-24 07:39:00,26.6,24.0,30.01,SW,219,0.0,-999.0,91,-99.99,,,0.00,weatherlink.com 1.10,2013-02-24 12:39:00,
2013-02-24 07:54:00,26.6,24.0,30.02,SSW,194,0.0,-999.0,91,-99.99,,,0.00,weatherlink.com 1.10,2013-02-24 12:54:00,
2013-02-24 08:09:00,26.7,25.0,30.02,SSW,192,0.0,-999.0,91,-99.99,,,0.00,weatherlink.com 1.10,2013-02-24 13:09:00,
2013-02-24 08:24:00,26.8,25.0,30.03,West,261,0.0,-999.0,91,-99.99,,,0.00,weatherlink.com 1.10,2013-02-24 13:24:00,
2013-02-24 08:39:00,27.0,25.0,30.03,SSW,198,0.0,-999.0,91,-99.99,,,0.00,weatherlink.com 1.10,2013-02-24 13:39:00,
2013-02-24 08:54:00,27.1,25.0,30.04,SE,129,0.0,-999.0,91,-99.99,,,0.00,weatherlink.com 1.10,2013-02-24 13:54:00,
2013-02-24 09:10:00,27.2,25.0,30.05,SE,129,0.0,-999.0,90,-99.99,,,0.00,weatherlink.com 1.10,2013-02-24 14:10:00,
2013-02-24 09:24:00,27.3,25.0,30.06,ENE,57,0.0,-999.0,90,-99.99,,,0.00,weatherlink.com 1.10,2013-02-24 14:24:00,
2013-02-24 09:40:00,27.6,25.0,30.06,NE,34,0.0,-999.0,90,-99.99,,,0.00,weatherlink.com 1.10,2013-02-24 14:40:00,
2013-02-24 09:55:00,28.0,25.0,30.07,NE,39,0.0,-999.0,89,-99.99,,,0.00,weatherlink.com 1.10,2013-02-24 14:55:00,
2013-02-24 10:09:00,28.4,26.0,30.07,NE,39,0.0,-999.0,89,-99.99,,,0.00,weatherlink.com 1.10,2013-02-24 15:09:00,
2013-02-24 10:25:00,28.5,26.0,30.08,NE,34,0.0,-999.0,89,-99.99,,,0.00,weatherlink.com 1.10,2013-02-24 15:25:00,
2013-02-24 10:40:00,28.6,26.0,30.08,NE,34,0.0,-999.0,89,-99.99,,,0.00,weatherlink.com 1.10,2013-02-24 15:40:00,
2013-02-24 10:54:00,28.6,26.0,30.09,ENE,59,0.0,-999.0,89,-99.99,,,0.00,weatherlink.com 1.10,2013-02-24 15:54:00,
2013-02-24 11:09:00,28.4,26.0,30.09,NE,42,0.0,-999.0,89,-99.99,,,0.00,weatherlink.com 1.10,2013-02-24 16:09:00,
2013-02-24 11:24:00,28.1,25.0,30.10,NE,41,0.0,-999.0,89,-99.99,,,0.00,weatherlink.com 1.10,2013-02-24 16:24:00,
2013-02-24 11:39:00,28.3,26.0,30.10,NE,45,0.0,-999.0,89,-99.99,,,0.00,weatherlink.com 1.10,2013-02-24 16:39:00,
2013-02-24 11:54:00,28.5,25.0,30.09,East,83,0.0,-999.0,88,-99.99,,,0.00,weatherlink.com 1.10,2013-02-24 16:54:00,
2013-02-24 12:09:00,28.8,26.0,30.10,ENE,60,1.0,-999.0,88,-99.99,,,0.00,weatherlink.com 1.10,2013-02-24 17:09:00,
2013-02-24 12:24:00,29.0,26.0,30.09,ENE,64,0.0,-999.0,87,-99.99,,,0.00,weatherlink.com 1.10,2013-02-24 17:24:00,
2013-02-24 12:39:00,28.8,25.0,30.09,NE,49,1.0,-999.0,87,-99.99,,,0.00,weatherlink.com 1.10,2013-02-24 17:39:00,
2013-02-24 12:54:00,28.8,25.0,30.10,NE,34,2.0,-999.0,86,-99.99,,,0.00,weatherlink.com 1.10,2013-02-24 17:54:00,
2013-02-24 13:09:00,29.1,25.0,30.10,East,87,1.0,-999.0,86,-99.99,,,0.00,weatherlink.com 1.10,2013-02-24 18:09:00,
2013-02-24 13:24:00,29.3,26.0,30.10,East,87,0.0,-999.0,87,-99.99,,,0.00,weatherlink.com 1.10,2013-02-24 18:24:00,
2013-02-24 13:39:00,29.5,26.0,30.10,East,87,0.0,-999.0,87,-99.99,,,0.00,weatherlink.com 1.10,2013-02-24 18:39:00,
2013-02-24 13:54:00,29.7,26.0,30.09,East,87,0.0,-999.0,85,-99.99,,,0.00,weatherlink.com 1.10,2013-02-24 18:54:00,
2013-02-24 14:10:00,30.0,26.0,30.09,East,87,1.0,-999.0,85,-99.99,,,0.00,weatherlink.com 1.10,2013-02-24 19:10:00,
2013-02-24 14:25:00,29.9,26.0,30.09,ENE,63,0.0,-999.0,85,-99.99,,,0.00,weatherlink.com 1.10,2013-02-24 19:25:00,
2013-02-24 14:39:00,29.8,26.0,30.10,ENE,63,0.0,-999.0,85,-99.99,,,0.00,weatherlink.com 1.10,2013-02-24 19:39:00,
2013-02-24 14:55:00,29.6,26.0,30.09,ENE,63,0.0,-999.0,86,-99.99,,,0.00,weatherlink.com 1.10,2013-02-24 19:55:00,
2013-02-24 15:10:00,29.2,26.0,30.10,NE,55,0.0,-999.0,86,-99.99,,,0.00,weatherlink.com 1.10,2013-02-24 20:10:00,
2013-02-24 15:25:00,29.2,25.0,30.10,NE,55,1.0,-999.0,85,-99.99,,,0.00,weatherlink.com 1.10,2013-02-24 20:25:00,
2013-02-24 15:39:00,29.2,26.0,30.10,NE,40,0.0,-999.0,86,-99.99,,,0.00,weatherlink.com 1.10,2013-02-24 20:39:00,
2013-02-24 15:55:00,29.1,26.0,30.11,NE,40,0.0,-999.0,87,-99.99,,,0.00,weatherlink.com 1.10,2013-02-24 20:55:00,
2013-02-24 16:09:00,28.9,25.0,30.11,NE,51,0.0,-999.0,86,-99.99,,,0.00,weatherlink.com 1.10,2013-02-24 21:09:00,
2013-02-24 16:25:00,28.8,25.0,30.12,NE,51,0.0,-999.0,86,-99.99,,,0.00,weatherlink.com 1.10,2013-02-24 21:25:00,
2013-02-24 16:39:00,28.7,25.0,30.12,NE,51,0.0,-999.0,86,-99.99,,,0.00,weatherlink.com 1.10,2013-02-24 21:39:00,
2013-02-24 16:54:00,28.5,25.0,30.12,NE,51,0.0,-999.0,87,-99.99,,,0.00,weatherlink.com 1.10,2013-02-24 21:54:00,
2013-02-24 17:10:00,28.5,25.0,30.12,NE,51,0.0,-999.0,87,-99.99,,,0.00,weatherlink.com 1.10,2013-02-24 22:10:00,
2013-02-24 17:25:00,28.3,25.0,30.13,NE,51,1.0,-999.0,86,-99.99,,,0.00,weatherlink.com 1.10,2013-02-24 22:25:00,
2013-02-24 17:40:00,28.2,25.0,30.14,NE,51,0.0,-999.0,88,-99.99,,,0.00,weatherlink.com 1.10,2013-02-24 22:40:00,
2013-02-24 17:55:00,28.0,25.0,30.14,NE,51,0.0,-999.0,88,-99.99,,,0.00,weatherlink.com 1.10,2013-02-24 22:55:00,
2013-02-24 18:10:00,28.0,25.0,30.14,NE,51,0.0,-999.0,89,-99.99,,,0.00,weatherlink.com 1.10,2013-02-24 23:10:00,
2013-02-24 18:25:00,27.9,25.0,30.14,NE,51,0.0,-999.0,89,-99.99,,,0.00,weatherlink.com 1.10,2013-02-24 23:25:00,
2013-02-24 18:40:00,27.8,25.0,30.14,NE,51,0.0,-999.0,89,-99.99,,,0.00,weatherlink.com 1.10,2013-02-24 23:40:00,
2013-02-24 18:55:00,27.6,25.0,30.14,NE,51,0.0,-999.0,90,-99.99,,,0.00,weatherlink.com 1.10,2013-02-24 23:55:00,
2013-02-24 19:10:00,27.5,25.0,30.14,NE,51,0.0,-999.0,91,-99.99,,,0.00,weatherlink.com 1.10,2013-02-25 00:10:00,
2013-02-24 19:25:00,27.4,25.0,30.15,NE,51,0.0,-999.0,91,-99.99,,,0.00,weatherlink.com 1.10,2013-02-25 00:25:00,
2013-02-24 19:40:00,27.4,25.0,30.15,NE,51,0.0,-999.0,91,-99.99,,,0.00,weatherlink.com 1.10,2013-02-25 00:40:00,
2013-02-24 19:55:00,27.3,25.0,30.15,NE,51,0.0,-999.0,92,-99.99,,,0.00,weatherlink.com 1.10,2013-02-25 00:55:00,
2013-02-24 20:10:00,27.3,25.0,30.15,NE,51,0.0,-999.0,92,-99.99,,,0.00,weatherlink.com 1.10,2013-02-25 01:10:00,
2013-02-24 20:25:00,27.2,25.0,30.15,NE,51,0.0,-999.0,92,-99.99,,,0.00,weatherlink.com 1.10,2013-02-25 01:25:00,
2013-02-24 20:40:00,27.1,25.0,30.16,NE,51,0.0,-999.0,92,-99.99,,,0.00,weatherlink.com 1.10,2013-02-25 01:40:00,
2013-02-24 20:54:00,27.0,25.0,30.16,NE,51,0.0,-999.0,92,-99.99,,,0.00,weatherlink.com 1.10,2013-02-25 01:54:00,
2013-02-24 21:10:00,26.7,25.0,30.16,NE,51,0.0,-999.0,92,-99.99,,,0.00,weatherlink.com 1.10,2013-02-25 02:10:00,
2013-02-24 21:25:00,26.6,25.0,30.16,NE,51,0.0,-999.0,92,-99.99,,,0.00,weatherlink.com 1.10,2013-02-25 02:25:00,
2013-02-24 21:40:00,26.5,25.0,30.15,NE,51,0.0,-999.0,92,-99.99,,,0.00,weatherlink.com 1.10,2013-02-25 02:40:00,
2013-02-24 21:55:00,26.5,25.0,30.15,NE,51,0.0,-999.0,92,-99.99,,,0.00,weatherlink.com 1.10,2013-02-25 02:55:00,
2013-02-24 22:10:00,26.4,24.0,30.15,NE,51,0.0,-999.0,92,-99.99,,,0.00,weatherlink.com 1.10,2013-02-25 03:10:00,
2013-02-24 22:25:00,26.2,24.0,30.16,NE,51,0.0,-999.0,92,-99.99,,,0.00,weatherlink.com 1.10,2013-02-25 03:25:00,
2013-02-24 22:40:00,26.1,24.0,30.16,NE,51,0.0,-999.0,92,-99.99,,,0.00,weatherlink.com 1.10,2013-02-25 03:40:00,
2013-02-24 22:55:00,26.0,24.0,30.16,NE,51,0.0,-999.0,92,-99.99,,,0.00,weatherlink.com 1.10,2013-02-25 03:55:00,
2013-02-24 23:10:00,26.1,24.0,30.16,NE,51,0.0,-999.0,92,-99.99,,,0.00,weatherlink.com 1.10,2013-02-25 04:10:00,
2013-02-24 23:25:00,26.3,24.0,30.16,SE,142,0.0,-999.0,91,-99.99,,,0.00,weatherlink.com 1.10,2013-02-25 04:25:00,
2013-02-24 23:40:00,26.3,24.0,30.16,SE,142,0.0,-999.0,90,-99.99,,,0.00,weatherlink.com 1.10,2013-02-25 04:40:00,
2013-02-24 23:54:00,26.3,24.0,30.16,SE,142,0.0,-999.0,90,-99.99,,,0.00,weatherlink.com 1.10,2013-02-25 04:54:00,